Location: Newark
(23.5328°S, 46.7919°W)
Time: 16:35:35
(UTC+00:00)

Hubble Space Telescope - Visible Passes

Search period start: 08 March 2021 00:00
Search period end: 18 March 2021 00:00
Orbit: 535 x 539 km, 28.5° (Epoch: 08 March)

Date Brightness Start Highest point End Pass type
(mag) Time Alt. Az. Time Alt. Az. Time Alt. Az.
08 Mar 1.1 07:47:52 36° NW 07:49:13 55° NNE 07:53:19 10° E visible
09 Mar 0.8 07:37:46 60° NNW 07:38:22 71° NNE 07:42:30 10° ESE visible
10 Mar 0.7 07:27:37 84° E 07:27:37 84° E 07:31:41 10° ESE visible
11 Mar 1.3 07:17:26 56° SE 07:17:26 56° SE 07:20:50 10° ESE visible
12 Mar 2.1 07:07:14 38° SE 07:07:14 38° SE 07:09:58 10° ESE visible
12 Mar 1.7 08:43:19 10° WSW 08:47:16 41° S 08:51:14 10° ESE visible
13 Mar 2.8 06:57:02 27° SE 06:57:02 27° SE 06:59:07 10° ESE visible
13 Mar 1.7 08:32:32 10° WSW 08:36:29 41° S 08:40:27 10° ESE visible
14 Mar 3.3 06:46:49 20° ESE 06:46:49 20° ESE 06:48:15 10° ESE visible
14 Mar 1.7 08:22:09 12° WSW 08:25:42 42° S 08:29:41 10° ESE visible
15 Mar 3.7 06:36:38 15° ESE 06:36:38 15° ESE 06:37:24 10° ESE visible
15 Mar 1.6 08:11:57 17° WSW 08:14:55 44° S 08:18:55 10° E visible
16 Mar 4.1 06:26:29 11° ESE 06:26:29 11° ESE 06:26:34 10° ESE visible
16 Mar 1.5 08:01:48 23° SW 08:04:07 48° S 08:08:09 10° E visible
17 Mar 1.3 07:51:41 32° SW 07:53:18 54° S 07:57:23 10° E visible
